Weather in Essoyla

Russia / Republic of Karelia     61°50′49″N   33°12′40″E
temp.,
°C
wind,
m/s
gust,
m/s
humid.,
%
clouds,
%
prec.,
mm/h
press.,
hPa
HPBL,
m
13 august, sat
sat1300:00+15wnw117946 0.0 102113
03:00+14nnw148082 0.0 1021121
06:00+12n24849 0.0 1022126
09:00+16n23494 0.0 1023538
12:00+20nnw23340 0.0 10231218
15:00+22nnw22300 0.0 10221639
18:00+21nnw22340 0.0 10221487
21:00+14n11605 0.0 102311
14 august, sun
sun1400:00+11e11685 0.0 102310
03:00+10se00726 0.0 102310
06:00+11se117120 0.0 102310
09:00+18s12465 0.0 1023345
12:00+23ssw12325 0.0 10221162
15:00+25sw12295 0.0 10211499
18:00+24wsw12370 0.0 10211277
21:00+17w116275 0.0 102111
15 august, mon
mon1500:00+14e11725 0.0 102211
03:00+13se117249 0.0 102210
06:00+13se11665 0.0 102210
09:00+21ese134326 0.0 1022317
12:00+26sse23375 0.0 10221205
15:00+27sse23368 0.0 10212025
18:00+27ese134486 0.0 1020732
21:00+20ese2860100 0.0 1021184
16 august, tue
tue1600:00+19ese245993 0.0 102199
03:00+17sse247421 0.0 102177
06:00+18sse237759 0.0 102171
09:00+24s365689 0.0 1021359
12:00+28s3640100 0.0 10201728
15:00+29ssw3535100 0.0 10202492
18:00+27wsw254399 0.0 1019369
21:00+21se116232 0.0 101911
17 august, wed
wed1700:00+20sse287095 0.0 1019140
03:00+18sse297773 0.0 1019176
06:00+19s287625 0.0 1019209
09:00+24s485665 0.0 1019471
12:00+27ssw474698 0.0 10191209
15:00+28ssw4643100 0.0 10191600
18:00+26sw365151 0.0 1018842
21:00+21s1271100 0.0 101811